Overview Statistics Trail Chart Weather Telemetry Raw packets
 

This is the latest recevied weather packets stored in our database for station/object PY5AL-13. If no packets are shown the sender has not sent any weather packets the latest 10 day(s).

<< 19 20 21 22 23 24 25 >>
Time Temp. Humidity Pressure Rain* Wind** Luminosity Snow
1777253647 27.78° C 63% 1012.7 hPa - - - -
1777252447 27.78° C 64% 1012.7 hPa - - - -
1777251247 27.78° C 69% 1012.5 hPa - - - -
1777250047 27.78° C 69% 1012.8 hPa - - - -
1777248847 27.78° C 67% 1012.5 hPa - - - -
1777247647 27.78° C 66% 1011.8 hPa - - - -
1777246447 27.78° C 66% 1011.5 hPa - - - -
1777245247 27.78° C 66% 1011.2 hPa - - - -
1777244047 27.78° C 66% 1011.1 hPa - - - -
1777242847 28.33° C 65% 1010.8 hPa - - - -
1777241647 28.33° C 64% 1010.7 hPa - - - -
1777240448 28.33° C 64% 1010.7 hPa - - - -
1777239247 28.33° C 65% 1010.9 hPa - - - -
1777238048 28.33° C 66% 1010.9 hPa - - - -
1777236847 28.33° C 68% 1011.1 hPa - - - -
1777235647 28.89° C 68% 1011.5 hPa - - - -
1777234448 28.89° C 67% 1010.9 hPa - - - -
1777233248 28.89° C 64% 1010.5 hPa - - - -
1777232048 28.89° C 64% 1009.7 hPa - - - -
1777230848 28.89° C 65% 1009.5 hPa - - - -
1777229648 28.89° C 65% 1009.4 hPa - - - -
1777228448 28.89° C 65% 1009.3 hPa - - - -
1777227248 28.89° C 65% 1008.7 hPa - - - -
1777226048 28.89° C 65% 1009 hPa - - - -
1777224848 28.89° C 65% 1009 hPa - - - -

* Rain since midnight (hover to see other rain measurements)
** Current wind speed in m/s (hover to see current wind gust speed)